Other Public Products
Issued by NWS Grand Forks, ND

Home | Current Version | Previous Version | Graphics & Text | Print | Product List | Glossary On
Versions: 1 2 3 4 5 6 7 8 9 10 11 12 13 14 15 16 17 18 19 20 21 22 23 24 25 26 27 28 29 30 31 32 33 34 35 36 37 38 39 40 41 42 43 44 45 46 47 48 49 50
593
FPUS83 KFGF 280231
OPUFGF
PRAIRIE TO PINES WEATHER ROUNDUP
NATIONAL WEATHER SERVICE EASTERN NORTH DAKOTA/GRAND FORKS ND
900 PM CDT MON MAR 27 2017

 **SATELLITE DATA USED TO AUGMENT SKY COVER AT AUTOMATED STATIONS**
 *****  WEATHER ACROSS EASTERN NORTH DAKOTA  *****

CITY           SKY/WX    TMP DP  RH WIND       PRES   REMARKS
GRAND FORKS    CLOUDY    39  38  96 N8        30.05R FOG
GRAND FORKS AF CLOUDY    37  37 100 N12       30.06R FOG
GRAND CITY NWS NOT AVBL
BUXTON         NOT AVBL
DEVILS LAKE    LGT RAIN  37  37 100 E12       30.03R VSB 1/2
FARGO          FAIR      42  40  92 N10       30.01R
WAHPETON ARPT  FAIR      45  34  65 CALM      29.99S
$$

 *****  WEATHER ACROSS CENTRAL AND WESTERN NORTH DAKOTA  *****

CITY           SKY/WX    TMP DP  RH WIND       PRES   REMARKS
JAMESTOWN      FAIR      44  40  85 E10       29.98R
BISMARCK       FAIR      51  34  52 NE8       29.96R
MINOT          CLOUDY    36  34  92 N5        30.01R FOG
MINOT AFB      FOG       35  34  99 N5        30.01R VSB 3/4
GARRISON         N/A     39  36  89 NE8       29.98R
WILLISTON      CLOUDY    50  35  56 N6        29.97R
DICKINSON      FAIR      45  27  49 NE9       29.90R
HETTINGER      FAIR      47  29  49 SE7       29.93R
$$

 *****  OTHER OBSERVATIONS NORTHEAST NORTH DAKOTA  *****

CITY           SKY/WX    TMP DP  RH WIND       PRES   REMARKS
WALHALLA       NOT AVBL
LANGDON        FOG       34  34 100 NE8       30.06R VSB 1/2
CAVALIER       MOCLDY    36  36 100 NW8       30.07R
GRAFTON        FOG       34  34 100 NW6       30.09R VSB 1/2
CANDO          NOT AVBL
FORT TOTTEN      N/A     40  40 100 E7        29.95S
ROLLA          CLOUDY    32  34 100 NE9       30.06R FOG     WCI  24
RUGBY          NOT AVBL
 ***** THE ABOVE OBSERVATIONS ARE NON NWS ARE NOT QUALITY
        CONTROLLED AND MAY MIS-REPORT RAIN FOR SNOW...
$$

 *****  OTHER OBSERVATIONS SOUTHEAST NORTH DAKOTA *****

CITY           SKY/WX    TMP DP  RH WIND       PRES   REMARKS
COOPERSTOWN    FAIR      37  37 100 E10       30.02R FOG
VALLEY CITY    FAIR      43  43 100 NE7       30.02R
OAKES          NOT AVBL
GWINNER        CLEAR     43  36  75 MISG      29.99R
SHEYENNE NWR     N/A     47  36  65 NE3       29.95S
BUFFALO        NOT AVBL
WYNDMERE         N/A     41  37  87 CALM        N/A
 ***** THE ABOVE OBSERVATIONS ARE NON NWS ARE NOT QUALITY
       CONTROLLED AND MAY MIS-REPORT RAIN FOR SNOW...
$$

  *****  WEATHER ACROSS NORTHERN MINNESOTA  *****

CITY           SKY/WX    TMP DP  RH WIND       PRES   REMARKS
FLAG ISLAND    FAIR      41  30  65 N7        30.04R
WARROAD        MOCLDY    39  34  81 N3        30.05R
ROSEAU         MOCLDY    39  34  81 N7        30.04R
HALLOCK        MOCLDY    36  36 100 N3        30.05R
THF RVR FALLS  FAIR     N/A N/A N/A N10       30.02R
HALSTAD          N/A     37  36  94 NW8         N/A
FOSSTON        FAIR      37  36  93 N5        30.01R
BAUDETTE       CLOUDY    42  31  64 N8        30.02R
WASKISH        FAIR      39  34  81 N3        30.01S
CROOKSTON      MIX PCPN  37  37 100 NW8       30.05R VSB 1/4
$$
  *****  WEATHER ACROSS CENTRAL AND WEST MINNESOTA  *****

CITY           SKY/WX    TMP DP  RH WIND       PRES   REMARKS
BEMIDJI        FAIR      42  29  59 N3        29.99S
PARK RAPIDS    FAIR      49  24  37 E3        29.98R
WADENA         FAIR      43  34  70 CALM      29.99R HAZE
DETROIT LAKES  FAIR      45  41  87 NW5       30.01R
MOORHEAD       FAIR      43  41  93 N7        30.02R FOG
FERGUS FALLS   FAIR      46  37  71 NW6       30.02R
ELBOW LAKE     FAIR      43  34  71 CALM      30.00R
MORRIS MN      FAIR      46  34  61 SE3       29.99R
STAPLES        FAIR      43  32  65 CALM      30.00R
WHEATON        FAIR      46  36  66 CALM      30.01R
$$
  *****  WEATHER ELSEWHERE ACROSS MINNESOTA  *****

CITY           SKY/WX    TMP DP  RH WIND       PRES   REMARKS
DULUTH         FAIR      39  31  72 SE5       30.00R
INTRNTL FALLS  CLOUDY    37  25  61 CALM      30.00R
ELY            FAIR      34  21  60 CALM      30.00S
CLOQUET        FAIR      37  30  75 CALM      30.01R
BRAINERD       FAIR      40  30  67 CALM      29.99R
HIBBING        FAIR      31  26  82 CALM      29.99R
ALEXANDRIA     FAIR      47  34  60 S3        29.99R
SAINT CLOUD    FAIR      43  36  76 CALM      29.99R
MINNEAPOLIS    FAIR      47  36  65 SE5       29.99R
$$

  *****  WEATHER ACROSS SOUTH DAKOTA  *****

CITY           SKY/WX    TMP DP  RH WIND       PRES   REMARKS
SIOUX FALLS    FAIR      50  39  66 SE9       29.98R
BROOKINGS      MOCLDY    50  37  61 E9        29.97R
WATERTOWN      MOCLDY    48  38  68 E7        29.97R
HURON          MOCLDY    48  37  65 E6        29.95R
SISSETON         N/A     44  36  73 CALM      29.98R
ABERDEEN       MOCLDY    48  35  60 CALM      29.96R
MITCHELL       FAIR      52  35  52 S6        29.95R
PIERRE         FAIR      45  31  58 NE7       29.91R
MOBRIDGE       FAIR      49  35  58 E9        29.93R
RAPID CITY     MOCLDY    50  35  56 NE10      29.88R
$$

  *****  SOME WEATHER IN NEARBY STATES *****

CITY           SKY/WX    TMP DP  RH WIND       PRES   REMARKS
GLASGOW MT     CLOUDY    49  35  58 E8        29.92R
GREAT FALLS MT CLOUDY    46  30  53 NW6       29.95R
CHEYENNE WY    RAIN      44  39  82 S8        29.87R
SCOTTSBLUFF NE LGT RAIN  59  33  37 VRB6      29.82R
OMAHA NE       CLOUDY    50  40  68 E5        29.97S
DES MOINES IA  CLOUDY    49  40  71 N8        29.99R
DAVENPORT IA   CLOUDY    49  45  86 N3        29.97R
CHICAGO IL     CLOUDY    43  37  79 NE10      29.95R
EAU CLAIRE WI  FAIR      42  37  82 CALM      29.98R
LA CROSSE WI   CLOUDY    46  39  76 N5        29.98R
$$

  *****  SOME NATIONAL WEATHER *****

CITY           SKY/WX    TMP DP  RH WIND       PRES   REMARKS
LA GUARDIA NY  MOCLDY    46  42  86 E7        30.01S
RALEIGH NC     MOCLDY    70  57  63 S8        29.98S
ATLANTA GA     CLOUDY    71  54  54 S7        29.95R
NEW ORLEANS LA FAIR      73  68  84 S8        29.95S
OKLAHOMA CITY  FAIR      61  46  57 NE12      29.90R
ALBUQUERQUE NM MOCLDY    57  33  40 NW21      29.86R
SALT LAKE CITY CLOUDY    44  40  85 N10       29.92R
LOS ANGELES CA FAIR      66  39  37 W16G25    29.93F
BOISE ID       MOCLDY    50  29  44 NW14      30.10R
SEATTLE WA     MOCLDY    48  44  86 SW13      30.19S
$$

*** WEATHER ACROSS MANITOBA...SASKATCHEWAN AND ONTARIO ***
                ***ONTARIO***

CITY           SKY/WX    TMP DP  RH WIND       PRES   REMARKS
GERALDTON      PTCLDY    32  23  69 N5        29.99R
THUNDER BAY    PTCLDY    34  28  80 VRB2      30.01R
SIOUX LOOKOUT  MOCLDY    37  27  65 N2        30.03R
TORONTO        CLOUDY    54  50  87 SW6       29.88F
BIG TROUT LK   CLOUDY    19  10  68 NW8       30.14S WCI   9
PICKLE LAKE    PTCLDY    30  21  69 NE10      30.06R WCI  21
DRYDEN         CLOUDY    41  27  56 N7        30.03R
KENORA         MOCLDY    43  28  56 N5        30.04R
$$
                *** MANITOBA***

CITY           SKY/WX    TMP DP  RH WIND       PRES   REMARKS
BRANDON        MOCLDY    34  30  86 NE8       30.10R
DAUPHIN        CLOUDY    32  28  86 NE6       30.15R
ISLAND LAKE    MOCLDY    23  12  63 N6        30.20R WCI  16
PILOT MOUND      N/A     34  28  80 NE6         N/A
THE PAS        PTCLDY    25  16  68 CALM      30.20R
THOMPSON       CLOUDY    21  14  73 N6        30.27R WCI  14
WINNIPEG       MOCLDY    34  28  80 NE8       30.10R
LYNN LAKE      CLEAR     19  12  73 E5        30.23R WCI  13
CHURCHILL      CRYSTALS   0  -2  92 NW9       30.37R WCI -16
GILLAM         PTCLDY    10   7  85 NE7       30.29R WCI   0
$$
                ***SASKATCHEWAN***

CITY           SKY/WX    TMP DP  RH WIND       PRES   REMARKS
ESTEVAN        CLOUDY    34  34 100 SE5       30.05R FOG
KINDERSLEY     MOCLDY    39  36  87 E13       29.93R
LLOYDMINSTER   CLOUDY    34  34 100 SE13      29.96R WCI  25
PRINCE ALBERT  CLOUDY    34  27  75 SE8       30.09R
REGINA         CLOUDY    36  36 100 E14       30.02R
YORKTON        CLOUDY    34  32  93 E8        30.09R



USA.gov is the U.S. government's official web portal to all federal, state and local government web resources and services.